[[{"header":{"parameterUnit":"m.s-1","parameterCategory":2,"la1":30.2991,"la2":30.254,"lo1":-89.0895,"lo2":-89.0444,"dy":0.0017,"dx":0.0017,"nx":28,"ny":28,"refTime":"2025-12-16T03:00:00:Z","depth":"0","parameterNumber":2,"parameterNumberName":"U-component_of_CURRENTS"},"data":[0,0,0,0,0,0,0,0,0,0,0,0,0,0,0,0,0,0,0,0,0,0,0,0,0,0,0,0,0,0,0,0,0,0,0,0,0,0,0,0,0,0,0,0,0,0,0,0,0,0,0,0,0,0,0,0,0,0,-0.2931,-0.2932,0,-0.2969,-0.2969,-0.297,-0.2936,-0.2935,-0.2934,-0.2933,-0.2899,-0.29,-0.29,0,0,0,0,0,0,0,0,0,0,0,0,0,-0.2838,-0.284,-0.2931,-0.2932,-0.2933,-0.2969,-0.2969,-0.297,-0.2937,-0.2935,-0.2934,-0.2933,-0.2899,-0.29,-0.29,0,0,0,0,0,0,0,0,0,0,0,0,0,-0.2875,-0.284,-0.2931,-0.2923,-0.2923,-0.2969,-0.2969,-0.297,-0.2937,-0.2935,-0.2934,-0.2932,-0.2899,-0.29,-0.29,-0.2934,0,0,-0.29,-0.29,0,0,0,0,0,0,0,0,-0.2873,-0.2878,-0.2923,-0.2924,-0.2923,-0.2949,-0.2924,-0.2955,-0.2937,-0.2929,-0.2933,-0.2931,-0.2912,-0.2911,-0.2919,-0.2933,-0.2931,-0.29,-0.2901,-0.2901,-0.2901,0,0,0,0,0,0,0,-0.287,-0.2876,-0.2944,-0.2924,-0.2924,-0.292,-0.2923,-0.293,-0.2926,-0.2929,-0.2928,-0.2937,-0.2911,-0.2919,-0.2918,-0.2931,-0.29,-0.2901,-0.2901,-0.2901,-0.2963,-0.2964,0,0,0,0,0,0,-0.2873,-0.2874,-0.2942,-0.2945,-0.2897,-0.2923,-0.2926,-0.294,-0.2927,-0.2925,-0.2938,-0.2935,-0.292,-0.2918,-0.2917,-0.2949,-0.2901,-0.2901,-0.2901,-0.2962,-0.2963,-0.2965,0,0,0,0,0,0,-0.2871,-0.2879,-0.2941,-0.2912,-0.292,-0.2927,-0.2942,-0.2942,-0.2942,-0.2935,-0.2931,-0.2938,-0.2918,-0.2916,-0.2926,-0.2947,-0.2901,-0.2901,-0.296,-0.2962,-0.2964,-0.3017,0,0,0,0,0,0,-0.2868,-0.2878,-0.2884,-0.2913,-0.2922,-0.2971,-0.2944,-0.2944,-0.2952,-0.2948,-0.2935,-0.293,-0.2917,-0.2926,-0.2926,-0.2946,-0.2901,-0.2958,-0.2961,-0.2963,-0.3014,-0.3021,-0.3028,0,0,0,0,0,-0.2865,-0.2883,-0.2884,-0.2892,-0.2931,-0.2972,-0.2977,-0.2973,-0.2954,-0.2965,-0.2954,-0.293,-0.2944,-0.2927,-0.2927,-0.2948,-0.2956,-0.296,-0.2963,-0.3011,-0.302,-0.3028,0,0,0,0,0,0,-0.2842,-0.2883,-0.2884,-0.2911,-0.294,-0.2968,-0.2975,-0.2977,-0.2979,-0.2968,-0.295,-0.2947,-0.2963,-0.2954,-0.2936,-0.2976,-0.2947,-0.295,-0.2983,-0.2991,-0.2998,-0.2994,-0.2901,0,0,0,0,0,-0.2843,-0.2863,-0.2904,-0.2923,-0.2939,-0.2957,-0.297,-0.2975,-0.2986,-0.2984,-0.2978,-0.2973,-0.2983,-0.2983,-0.2987,-0.3011,-0.299,-0.3025,-0.3032,-0.3038,-0.3037,-0.3034,-0.304,-0.2976,-0.2976,-0.2976,0,0,-0.2835,-0.2862,-0.2871,-0.2919,-0.2935,-0.2974,-0.2959,-0.2987,-0.3013,-0.2982,-0.3002,-0.2997,-0.2995,-0.302,-0.3027,-0.3011,-0.3047,-0.3043,-0.3048,-0.3043,-0.3038,-0.3044,-0.3049,-0.2979,-0.2978,-0.2978,0,0,-0.2843,-0.286,-0.2884,-0.2917,-0.2957,-0.2979,-0.2989,-0.3023,-0.3028,-0.3059,-0.3042,-0.305,-0.3063,-0.3068,-0.3072,-0.3123,-0.3084,-0.3125,-0.3155,-0.3153,-0.3158,-0.3161,-0.3143,-0.3145,-0.3128,-0.3128,-0.3128,0,-0.2831,-0.287,-0.2896,-0.2937,-0.2964,-0.2984,-0.3022,-0.3046,-0.3076,-0.3086,-0.3069,-0.3095,-0.3089,-0.3122,-0.3137,-0.3138,-0.3121,-0.3121,-0.316,-0.3164,-0.3167,-0.3147,-0.3148,-0.3131,-0.313,-0.313,-0.313,0,-0.2862,-0.2897,-0.2915,-0.2973,-0.3009,-0.3043,-0.309,-0.3117,-0.3123,-0.3142,-0.3169,-0.3167,-0.3176,-0.3185,-0.3175,-0.3203,-0.3178,-0.3168,-0.3135,-0.3176,-0.3153,-0.3153,-0.3135,-0.3134,-0.3133,-0.3132,0,0,-0.2821,-0.2918,-0.2921,-0.2955,-0.303,-0.3061,-0.3119,-0.3172,-0.3197,-0.3219,-0.3245,-0.3266,-0.3252,-0.3255,-0.3246,-0.3247,-0.3254,-0.3216,-0.3215,-0.319,-0.3233,-0.3161,-0.3154,-0.3246,-0.3246,-0.3247,-0.3207,0,-0.2831,-0.2906,-0.2957,-0.3022,-0.3063,-0.3116,-0.3168,-0.3219,-0.3247,-0.3278,-0.3284,-0.3302,-0.3284,-0.3282,-0.3285,-0.3264,-0.3257,-0.3264,-0.3203,-0.3201,-0.3126,-0.3153,-0.3043,-0.2994,-0.3207,-0.3207,-0.3207,0,-0.2837,-0.2889,-0.2955,-0.305,-0.3072,-0.3115,-0.319,-0.3239,-0.3299,-0.3321,-0.3342,-0.3343,-0.3357,-0.3328,-0.331,-0.3313,-0.3275,-0.3253,-0.3251,-0.3163,-0.313,-0.2988,-0.2985,-0.2966,-0.3207,-0.3207,-0.3207,0,-0.2779,-0.2883,-0.293,-0.2963,-0.3075,-0.3109,-0.3161,-0.3237,-0.3278,-0.3333,-0.3358,-0.3378,-0.3377,-0.3351,-0.331,-0.3307,-0.3276,-0.3266,-0.3166,-0.316,-0.3043,-0.3025,-0.3004,-0.3243,-0.3243,-0.3244,-0.3244,0,-0.2763,-0.2797,-0.2904,-0.2927,-0.298,-0.3072,-0.3126,-0.3185,-0.3266,-0.33,-0.3357,-0.3376,-0.338,-0.3366,-0.3323,-0.3242,-0.3283,-0.3168,-0.3147,-0.3058,-0.3044,-0.3002,-0.3018,-0.3242,-0.3242,-0.3243,-0.3243,0,-0.2682,-0.2758,-0.2811,-0.2921,-0.2952,-0.298,-0.3094,-0.313,-0.3225,-0.327,-0.3286,-0.3369,-0.335,-0.3341,-0.3298,-0.3244,-0.3124,-0.314,-0.3029,-0.2995,-0.2871,-0.2894,-0.2822,-0.2741,-0.302,-0.3018,-0.3016,0,-0.2646,-0.2665,-0.2769,-0.279,-0.2832,-0.2898,-0.2941,-0.3073,-0.3116,-0.3247,-0.3253,-0.3291,-0.3278,-0.3216,-0.3143,-0.3057,-0.3038,-0.2899,-0.2874,-0.2847,-0.2858,-0.2863,-0.2801,-0.2742,-0.2738,-0.2735,-0.2732,0,-0.2556,-0.259,-0.2627,-0.2675,-0.2717,-0.2776,-0.2849,-0.2891,-0.3033,-0.3085,-0.3139,-0.3149,-0.3132,-0.3018,-0.2937,-0.2863,-0.2827,-0.2831,-0.2833,-0.2662,-0.2635,-0.2551,-0.2788,-0.2705,-0.2708,-0.271,-0.2711,-0.2712,-0.2461,-0.246,-0.2504,-0.2533,-0.258,-0.2614,-0.261,-0.2711,-0.2761,-0.2813,-0.2934,-0.2924,-0.2901,-0.2777,-0.2712,-0.2577,-0.2622,-0.2495,-0.2532,-0.2545,-0.2447,-0.2616,-0.2493,-0.2495,-0.2496,-0.2497,-0.2498,0,-0.2327,-0.2339,-0.236,-0.2387,-0.237,-0.2451,-0.2507,-0.2478,-0.2473,-0.2586,-0.2608,-0.2645,-0.2537,-0.2529,-0.2428,-0.2321,-0.2256,-0.2263,-0.2256,-0.2209,-0.2374,-0.2342,-0.2142,-0.2142,-0.2142,-0.2142,-0.2142,-0.2142,-0.2257,-0.2218,-0.2231,-0.2155,-0.2168,-0.2094,-0.2085,-0.2072,-0.2115,-0.2138,-0.2217,-0.234,-0.2361,-0.2479,-0.2335,-0.2216,-0.215,-0.208,-0.2102,-0.2251,-0.2276,-0.23,-0.2273,-0.2063,-0.2063,-0.1853,-0.1852,-0.1851]},{"header":{"parameterUnit":"m.s-1","parameterCategory":2,"la1":30.2991,"la2":30.254,"lo1":-89.0895,"lo2":-89.0444,"dy":0.0017,"dx":0.0017,"nx":28,"ny":28,"refTime":"2025-12-16T03:00:00:Z","depth":"0","parameterNumber":3,"parameterNumberName":"V-component_of_CURRENTS"},"data":[0,0,0,0,0,0,0,0,0,0,0,0,0,0,0,0,0,0,0,0,0,0,0,0,0,0,0,0,0,0,0,0,0,0,0,0,0,0,0,0,0,0,0,0,0,0,0,0,0,0,0,0,0,0,0,0,0,0,-0.0281,-0.028,0,-0.0186,-0.0184,-0.0183,-0.0115,-0.0114,-0.0114,-0.0113,0.0021,0.0024,0.0027,0,0,0,0,0,0,0,0,0,0,0,0,0,-0.0342,-0.0341,-0.0281,-0.028,-0.0279,-0.0186,-0.0184,-0.0183,-0.0115,-0.0114,-0.0114,-0.0113,0.002,0.0023,0.0027,0,0,0,0,0,0,0,0,0,0,0,0,0,-0.0286,-0.0341,-0.0281,-0.0235,-0.023,-0.0186,-0.0184,-0.0182,-0.0115,-0.0114,-0.0114,-0.0113,0.0018,0.0023,0.0028,0.0046,0,0,0.0042,0.0045,0,0,0,0,0,0,0,0,-0.0289,-0.0284,-0.0243,-0.0238,-0.0232,-0.0163,-0.0157,-0.0105,-0.0115,-0.0156,-0.0113,-0.0113,-0.0039,-0.0029,-0.001,0.0052,0.0058,0.0043,0.0046,0.0048,0.0049,0,0,0,0,0,0,0,-0.0293,-0.0287,-0.0241,-0.0242,-0.0235,-0.0198,-0.019,-0.0146,-0.01,-0.0153,-0.0148,-0.0141,-0.0035,-0.0015,-0.0007,0.006,0.0043,0.0047,0.005,0.0052,0.0163,0.0163,0,0,0,0,0,0,-0.0313,-0.0291,-0.0244,-0.0238,-0.0262,-0.0198,-0.0189,-0.0184,-0.0101,-0.0089,-0.0141,-0.0138,-0.0024,-0.0012,-0.0002,0.0029,0.0048,0.0052,0.0055,0.0163,0.0163,0.0163,0,0,0,0,0,0,-0.0315,-0.031,-0.0248,-0.0264,-0.0254,-0.0198,-0.0193,-0.0183,-0.0163,-0.0093,-0.0079,-0.0133,-0.0023,-0.0009,0.0036,0.0035,0.0055,0.0059,0.0163,0.0163,0.0163,0.0088,0,0,0,0,0,0,-0.0317,-0.0311,-0.0316,-0.0265,-0.0254,-0.0232,-0.0194,-0.0181,-0.016,-0.0155,-0.0081,-0.0068,-0.0021,0.0029,0.0041,0.0042,0.0063,0.0163,0.0163,0.0163,0.009,0.0085,0.0081,0,0,0,0,0,-0.0319,-0.0334,-0.0317,-0.0311,-0.0262,-0.0233,-0.0223,-0.018,-0.0161,-0.0158,-0.0104,-0.007,0.0039,0.0033,0.0047,0.0049,0.0163,0.0163,0.0163,0.0092,0.0086,0.0081,0,0,0,0,0,0,-0.0363,-0.0327,-0.0307,-0.031,-0.0278,-0.0222,-0.0218,-0.0187,-0.0143,-0.0137,-0.0069,-0.0052,-0.0014,0.0028,0.0019,0.0082,0.0106,0.0109,0.0048,0.0043,0.0038,0.002,0.0067,0,0,0,0,0,-0.0377,-0.0377,-0.0333,-0.0335,-0.0323,-0.0272,-0.0255,-0.0226,-0.018,-0.016,-0.0108,-0.0051,-0.0002,0.0027,0.0073,0.0107,0.0155,0.0119,0.0114,0.011,0.0106,0.0178,0.018,0.0164,0.0164,0.0164,0,0,-0.0394,-0.0375,-0.0374,-0.0344,-0.0315,-0.0309,-0.026,-0.0242,-0.0229,-0.0153,-0.0122,-0.0068,0.0002,0.004,0.0062,0.0076,0.0139,0.011,0.0106,0.0104,0.0179,0.018,0.0182,0.0164,0.0164,0.0164,0,0,-0.0436,-0.0412,-0.0429,-0.0408,-0.0376,-0.0341,-0.0341,-0.0289,-0.0259,-0.0224,-0.0165,-0.0111,-0.0042,0.0013,0.005,0.0049,0.0109,0.0061,0.0029,0.0099,0.0101,0.0103,0.0159,0.0167,0.0063,0.0063,0.0062,0,-0.046,-0.0472,-0.0429,-0.0439,-0.0428,-0.0362,-0.0375,-0.0334,-0.0274,-0.0247,-0.0227,-0.0109,-0.0053,0.001,0.0009,0.0039,0.0082,0.0041,0.0092,0.0096,0.0099,0.0157,0.0166,0.0059,0.0059,0.006,0.006,0,-0.0512,-0.052,-0.0528,-0.0517,-0.0497,-0.0498,-0.0441,-0.0413,-0.0369,-0.032,-0.0254,-0.0169,-0.0097,-0.0071,-0.0031,0.0023,0.0046,0.0073,0.0101,0.0096,0.0157,0.0169,0.0054,0.0055,0.0056,0.0057,0,0,-0.0568,-0.0569,-0.057,-0.0582,-0.054,-0.0533,-0.0506,-0.046,-0.0438,-0.0365,-0.0325,-0.0233,-0.0178,-0.0133,-0.0067,-0.0005,0.0056,0.0035,0.004,0.0082,0.0202,0.0252,0.0269,0.0091,0.0092,0.0094,0.0232,0,-0.0622,-0.067,-0.0643,-0.0673,-0.0691,-0.0624,-0.0605,-0.0549,-0.0483,-0.0425,-0.0319,-0.0257,-0.0203,-0.0166,-0.0096,0.0022,0.0083,0.0015,0.0209,0.0214,0.0253,0.0284,0.0318,0.0447,0.0243,0.0245,0.0247,0,-0.0681,-0.0705,-0.0755,-0.0757,-0.0756,-0.0756,-0.0707,-0.068,-0.0572,-0.0519,-0.0427,-0.0337,-0.0226,-0.0185,0.001,-0.0037,0.0068,0.0158,0.0166,0.0247,0.0286,0.0424,0.0477,0.0659,0.0265,0.0263,0.0262,0,-0.0751,-0.078,-0.0826,-0.0827,-0.0815,-0.0815,-0.0796,-0.0711,-0.0685,-0.0571,-0.0529,-0.0383,-0.03,-0.0153,0.004,0.0025,0.0256,0.0265,0.0409,0.0413,0.05,0.0509,0.0746,0.0394,0.0394,0.0394,0.0393,0,-0.0822,-0.0856,-0.0867,-0.0894,-0.0936,-0.0891,-0.0899,-0.085,-0.0772,-0.0736,-0.0585,-0.0512,-0.0288,-0.0123,0.0032,0.0267,0.0258,0.0413,0.046,0.0474,0.0479,0.0686,0.0745,0.0399,0.0398,0.0397,0.0396,0,-0.0894,-0.09,-0.0958,-0.097,-0.0977,-0.1005,-0.0989,-0.0983,-0.0893,-0.0838,-0.0805,-0.0597,-0.0368,-0.0137,0.0128,0.0267,0.0592,0.0555,0.0551,0.0596,0.0881,0.0931,0.1198,0.1291,0.0731,0.0733,0.0735,0,-0.0936,-0.0975,-0.1028,-0.1068,-0.108,-0.1107,-0.1121,-0.1058,-0.1039,-0.0884,-0.0859,-0.0624,-0.0435,-0.0016,0.0278,0.0581,0.0706,0.0776,0.0758,0.0919,0.1011,0.1044,0.1104,0.0842,0.0845,0.0847,0.0849,0,-0.1012,-0.103,-0.1076,-0.1166,-0.1208,-0.1243,-0.125,-0.1257,-0.116,-0.1079,-0.092,-0.0754,-0.0322,0.0065,0.0469,0.0648,0.0909,0.0827,0.1013,0.1136,0.1173,0.1277,0.0716,0.0867,0.0866,0.0864,0.0863,0.0862,-0.1056,-0.1112,-0.1178,-0.1258,-0.1312,-0.1359,-0.138,-0.135,-0.1306,-0.1158,-0.0988,-0.0701,-0.013,0.0462,0.0678,0.1141,0.1085,0.1269,0.1321,0.1345,0.143,0.0901,0.1091,0.109,0.109,0.1089,0.1089,0,-0.1108,-0.1173,-0.1262,-0.1352,-0.1424,-0.1425,-0.1447,-0.1429,-0.1366,-0.1183,-0.0989,-0.0372,0.0194,0.0712,0.137,0.162,0.1664,0.1745,0.1812,0.1852,0.1418,0.1418,0.1666,0.1666,0.1666,0.1666,0.1666,0.1665,-0.1136,-0.1233,-0.1286,-0.142,-0.148,-0.1533,-0.1541,-0.1483,-0.1355,-0.1035,-0.0693,-0.0415,0.0353,0.1431,0.2047,0.2102,0.2291,0.2279,0.238,0.2089,0.2048,0.2009,0.2028,0.24,0.2401,0.2801,0.2805,0.2808]}],[{"header":{"parameterUnit":"m.s-1","parameterCategory":2,"la1":30.2991,"la2":30.254,"lo1":-89.0895,"lo2":-89.0444,"dy":0.0017,"dx":0.0017,"nx":28,"ny":28,"refTime":"2025-12-16T03:00:00:Z","depth":"2","parameterNumber":2,"parameterNumberName":"U-component_of_CURRENTS"},"data":[0,0,0,0,0,0,0,0,0,0,0,0,0,0,0,0,0,0,0,0,0,0,0,0,0,0,0,0,0,0,0,0,0,0,0,0,0,0,0,0,0,0,0,0,0,0,0,0,0,0,0,0,0,0,0,0,0,0,-0.2628,-0.2629,0,-0.2664,-0.2665,-0.2665,-0.2641,-0.264,-0.2639,-0.2639,-0.2615,-0.2615,-0.2616,0,0,0,0,0,0,0,0,0,0,0,0,0,-0.2542,-0.2543,-0.2628,-0.2629,-0.263,-0.2664,-0.2665,-0.2665,-0.2641,-0.264,-0.2639,-0.2638,-0.2615,-0.2615,-0.2616,0,0,0,0,0,0,0,0,0,0,0,0,0,-0.2576,-0.2544,-0.2628,-0.2624,-0.2624,-0.2664,-0.2665,-0.2665,-0.2641,-0.264,-0.2639,-0.2638,-0.2615,-0.2615,-0.2616,-0.2642,0,0,-0.2616,-0.2616,0,0,0,0,0,0,0,0,-0.2574,-0.2579,-0.2624,-0.2624,-0.2625,-0.2649,-0.2626,-0.2655,-0.2642,-0.2632,-0.2638,-0.2637,-0.2624,-0.2623,-0.263,-0.2641,-0.264,-0.2616,-0.2617,-0.2617,-0.2617,0,0,0,0,0,0,0,-0.2572,-0.2578,-0.264,-0.2625,-0.2625,-0.2622,-0.2625,-0.2631,-0.2631,-0.2633,-0.2632,-0.2641,-0.2623,-0.263,-0.2629,-0.264,-0.2616,-0.2617,-0.2617,-0.2617,-0.268,-0.2681,0,0,0,0,0,0,-0.2575,-0.2576,-0.2639,-0.2641,-0.2599,-0.2625,-0.2628,-0.264,-0.2632,-0.2631,-0.2642,-0.2639,-0.263,-0.2629,-0.2628,-0.2666,-0.2617,-0.2617,-0.2617,-0.2678,-0.268,-0.2682,0,0,0,0,0,0,-0.2573,-0.258,-0.2637,-0.2611,-0.2618,-0.2628,-0.2642,-0.2642,-0.2647,-0.2641,-0.2637,-0.2647,-0.2629,-0.2628,-0.2641,-0.2664,-0.2617,-0.2617,-0.2676,-0.2679,-0.2681,-0.2737,0,0,0,0,0,0,-0.257,-0.2579,-0.2586,-0.2611,-0.262,-0.2667,-0.2643,-0.2644,-0.2656,-0.2653,-0.2644,-0.2641,-0.2628,-0.2641,-0.2642,-0.2664,-0.2617,-0.2675,-0.2677,-0.268,-0.2733,-0.2741,-0.2747,0,0,0,0,0,-0.2567,-0.2585,-0.2587,-0.2594,-0.263,-0.2668,-0.2672,-0.2672,-0.2658,-0.267,-0.2664,-0.2641,-0.2659,-0.2643,-0.2643,-0.2665,-0.2673,-0.2677,-0.268,-0.273,-0.2739,-0.2747,0,0,0,0,0,0,-0.255,-0.2586,-0.2587,-0.2614,-0.2642,-0.2665,-0.2676,-0.2678,-0.2685,-0.2678,-0.2661,-0.2659,-0.2679,-0.2669,-0.2651,-0.2694,-0.2663,-0.2667,-0.2701,-0.2709,-0.2716,-0.2714,-0.2618,0,0,0,0,0,-0.2552,-0.2571,-0.2607,-0.2627,-0.2643,-0.266,-0.2673,-0.268,-0.2692,-0.2693,-0.2689,-0.2687,-0.2697,-0.2699,-0.2704,-0.2728,-0.2709,-0.2744,-0.2751,-0.2757,-0.2756,-0.2754,-0.276,-0.2693,-0.2693,-0.2693,0,0,-0.2548,-0.2571,-0.2581,-0.2624,-0.2641,-0.2677,-0.2664,-0.2693,-0.2719,-0.269,-0.2715,-0.2712,-0.2709,-0.2736,-0.2744,-0.2728,-0.2768,-0.2761,-0.2766,-0.2762,-0.2758,-0.2765,-0.277,-0.2695,-0.2695,-0.2695,0,0,-0.2558,-0.2575,-0.2598,-0.2629,-0.2668,-0.2687,-0.2698,-0.2731,-0.2739,-0.2772,-0.2757,-0.2769,-0.2783,-0.2787,-0.279,-0.2842,-0.2806,-0.2845,-0.2877,-0.2876,-0.2881,-0.2885,-0.2871,-0.2873,-0.2847,-0.2848,-0.2848,0,-0.2551,-0.2587,-0.261,-0.2648,-0.2674,-0.2694,-0.273,-0.2754,-0.2785,-0.2798,-0.2785,-0.2813,-0.2809,-0.284,-0.2858,-0.2857,-0.2843,-0.2843,-0.2884,-0.2887,-0.2891,-0.2875,-0.2877,-0.2851,-0.285,-0.285,-0.285,0,-0.2582,-0.2615,-0.2633,-0.2685,-0.272,-0.2754,-0.2797,-0.2826,-0.2837,-0.2855,-0.2886,-0.2886,-0.2898,-0.2906,-0.2897,-0.2927,-0.2904,-0.2892,-0.2858,-0.29,-0.2882,-0.2883,-0.2855,-0.2854,-0.2853,-0.2852,0,0,-0.2549,-0.2637,-0.2641,-0.2672,-0.2742,-0.2771,-0.2828,-0.2878,-0.2905,-0.2932,-0.2959,-0.2983,-0.2974,-0.2977,-0.2969,-0.2971,-0.2985,-0.2944,-0.2942,-0.2922,-0.297,-0.2897,-0.289,-0.2975,-0.2976,-0.2976,-0.2948,0,-0.2561,-0.2629,-0.2675,-0.2737,-0.2774,-0.2825,-0.2875,-0.2924,-0.2955,-0.2988,-0.2997,-0.3019,-0.3005,-0.3007,-0.3012,-0.2992,-0.299,-0.2993,-0.2938,-0.2936,-0.2859,-0.289,-0.2676,-0.2627,-0.2948,-0.2948,-0.2948,0,-0.2569,-0.2615,-0.2677,-0.2763,-0.2784,-0.2827,-0.2899,-0.2947,-0.3007,-0.3031,-0.3057,-0.3061,-0.3079,-0.3053,-0.3042,-0.3043,-0.3012,-0.2992,-0.299,-0.29,-0.2864,-0.2637,-0.2616,-0.2949,-0.2949,-0.2949,-0.2949,0,-0.2518,-0.2613,-0.2657,-0.2687,-0.279,-0.2824,-0.2874,-0.2949,-0.2988,-0.3048,-0.3074,-0.3097,-0.3101,-0.3081,-0.3047,-0.3044,-0.3019,-0.3007,-0.2912,-0.2906,-0.2702,-0.2677,-0.2992,-0.2992,-0.2992,-0.2992,-0.2992,0,-0.2505,-0.2537,-0.2635,-0.2657,-0.2708,-0.2793,-0.2848,-0.2905,-0.2984,-0.3016,-0.3078,-0.3095,-0.3107,-0.3097,-0.306,-0.2986,-0.3028,-0.2917,-0.2895,-0.2716,-0.2694,-0.2955,-0.2951,-0.2991,-0.2991,-0.2992,-0.2992,0,-0.2433,-0.2503,-0.2552,-0.2654,-0.2683,-0.2712,-0.282,-0.2854,-0.2949,-0.2992,-0.3011,-0.309,-0.3078,-0.3075,-0.304,-0.2988,-0.2934,-0.2894,-0.2681,-0.2634,-0.2818,-0.2818,-0.2786,-0.2783,-0.278,-0.2778,-0.2777,0,-0.2402,-0.242,-0.2516,-0.2534,-0.2576,-0.264,-0.2679,-0.2804,-0.2842,-0.2969,-0.2971,-0.3015,-0.3001,-0.2948,-0.2872,-0.2795,-0.2866,-0.2551,-0.251,-0.2816,-0.2798,-0.2801,-0.2804,-0.226,-0.2254,-0.2249,-0.2246,0,-0.232,-0.2353,-0.2386,-0.2429,-0.247,-0.2521,-0.2589,-0.2624,-0.2756,-0.2804,-0.2848,-0.2857,-0.284,-0.2674,-0.2604,-0.2525,-0.2551,-0.2453,-0.2815,-0.2356,-0.232,-0.2303,-0.2323,-0.2204,-0.2208,-0.2211,-0.2213,-0.2215,-0.2235,-0.2233,-0.2272,-0.2297,-0.234,-0.2364,-0.2355,-0.2441,-0.2479,-0.2509,-0.2627,-0.2569,-0.256,-0.2346,-0.2233,-0.2144,-0.2313,-0.2192,-0.2206,-0.2225,-0.218,-0.2143,-0.1984,-0.1986,-0.1989,-0.1991,-0.1993,0,-0.2111,-0.2119,-0.2136,-0.2156,-0.2134,-0.2214,-0.2252,-0.2208,-0.2186,-0.2257,-0.2263,-0.2046,-0.196,-0.1959,-0.1772,-0.1738,-0.1711,-0.1649,-0.1614,-0.1656,-0.1694,-0.1622,-0.1278,-0.1276,-0.1273,-0.1272,0,0,-0.2045,-0.2004,-0.2011,-0.193,-0.1941,-0.1861,-0.1845,-0.1803,-0.1807,-0.1732,-0.1706,-0.1861,-0.1911,-0.1599,-0.1524,-0.1376,-0.1497,-0.1302,-0.1876,-0.1876,-0.1911,-0.2006,-0.1943,0,0,0,0,0]},{"header":{"parameterUnit":"m.s-1","parameterCategory":2,"la1":30.2991,"la2":30.254,"lo1":-89.0895,"lo2":-89.0444,"dy":0.0017,"dx":0.0017,"nx":28,"ny":28,"refTime":"2025-12-16T03:00:00:Z","depth":"2","parameterNumber":3,"parameterNumberName":"V-component_of_CURRENTS"},"data":[0,0,0,0,0,0,0,0,0,0,0,0,0,0,0,0,0,0,0,0,0,0,0,0,0,0,0,0,0,0,0,0,0,0,0,0,0,0,0,0,0,0,0,0,0,0,0,0,0,0,0,0,0,0,0,0,0,0,-0.0265,-0.0264,0,-0.0177,-0.0176,-0.0175,-0.0111,-0.0111,-0.011,-0.011,0.0015,0.0018,0.0021,0,0,0,0,0,0,0,0,0,0,0,0,0,-0.032,-0.0319,-0.0265,-0.0264,-0.0263,-0.0177,-0.0176,-0.0174,-0.0111,-0.0111,-0.011,-0.011,0.0014,0.0018,0.0021,0,0,0,0,0,0,0,0,0,0,0,0,0,-0.0269,-0.0319,-0.0265,-0.0223,-0.0218,-0.0178,-0.0176,-0.0174,-0.0111,-0.0111,-0.011,-0.011,0.0013,0.0018,0.0022,0.0039,0,0,0.0036,0.0038,0,0,0,0,0,0,0,0,-0.0272,-0.0267,-0.023,-0.0225,-0.022,-0.0156,-0.0149,-0.0102,-0.0111,-0.015,-0.011,-0.0109,-0.004,-0.0031,-0.0014,0.0045,0.005,0.0036,0.0039,0.0041,0.0042,0,0,0,0,0,0,0,-0.0275,-0.027,-0.0228,-0.0229,-0.0223,-0.0188,-0.0181,-0.014,-0.0097,-0.0146,-0.0142,-0.0136,-0.0037,-0.0018,-0.001,0.0052,0.0036,0.004,0.0043,0.0045,0.0148,0.0148,0,0,0,0,0,0,-0.0294,-0.0273,-0.0231,-0.0226,-0.0247,-0.0188,-0.0179,-0.0176,-0.0098,-0.0086,-0.0136,-0.0133,-0.0026,-0.0016,-0.0006,0.0023,0.0041,0.0045,0.0048,0.0148,0.0148,0.0148,0,0,0,0,0,0,-0.0295,-0.0291,-0.0235,-0.0249,-0.0239,-0.0188,-0.0184,-0.0174,-0.0156,-0.0091,-0.0078,-0.0128,-0.0025,-0.0012,0.003,0.0029,0.0047,0.0051,0.0148,0.0148,0.0148,0.0079,0,0,0,0,0,0,-0.0297,-0.0292,-0.0297,-0.025,-0.0239,-0.022,-0.0185,-0.0173,-0.0153,-0.0148,-0.008,-0.0067,-0.0024,0.0023,0.0035,0.0035,0.0055,0.0148,0.0148,0.0148,0.0081,0.0077,0.0073,0,0,0,0,0,-0.03,-0.0313,-0.0298,-0.0293,-0.0248,-0.0221,-0.0212,-0.0172,-0.0154,-0.0152,-0.0102,-0.007,0.0032,0.0027,0.004,0.0042,0.0148,0.0148,0.0148,0.0083,0.0078,0.0073,0,0,0,0,0,0,-0.034,-0.0307,-0.0289,-0.0292,-0.0262,-0.0211,-0.0207,-0.0179,-0.0137,-0.0132,-0.0068,-0.0053,-0.0018,0.0022,0.0014,0.0073,0.0095,0.0098,0.0041,0.0036,0.0032,0.0016,0.0058,0,0,0,0,0,-0.0352,-0.0353,-0.0313,-0.0315,-0.0305,-0.0257,-0.0241,-0.0215,-0.0172,-0.0154,-0.0105,-0.0052,-0.0007,0.0021,0.0064,0.0096,0.0141,0.0107,0.0103,0.0099,0.0095,0.0163,0.0164,0.0149,0.0149,0.0149,0,0,-0.0369,-0.0351,-0.0351,-0.0324,-0.0297,-0.0291,-0.0246,-0.0229,-0.0218,-0.0147,-0.0117,-0.0068,-0.0003,0.0033,0.0053,0.0067,0.0126,0.0099,0.0095,0.0094,0.0163,0.0165,0.0166,0.0149,0.0149,0.0149,0,0,-0.0407,-0.0386,-0.0402,-0.0382,-0.0352,-0.032,-0.032,-0.0273,-0.0245,-0.0213,-0.0157,-0.0108,-0.0044,0.0008,0.0042,0.0042,0.0098,0.0053,0.0024,0.009,0.0091,0.0093,0.0145,0.0153,0.0055,0.0055,0.0055,0,-0.043,-0.0441,-0.0402,-0.041,-0.04,-0.034,-0.0352,-0.0314,-0.0258,-0.0234,-0.0215,-0.0106,-0.0054,0.0005,0.0005,0.0032,0.0073,0.0035,0.0083,0.0087,0.009,0.0143,0.0152,0.0052,0.0052,0.0053,0.0053,0,-0.0477,-0.0485,-0.0492,-0.0481,-0.0464,-0.0464,-0.0412,-0.0387,-0.0346,-0.0301,-0.024,-0.0162,-0.0095,-0.007,-0.0032,0.0018,0.0039,0.0065,0.0092,0.0087,0.0144,0.0154,0.0047,0.0048,0.0049,0.005,0,0,-0.0528,-0.0529,-0.053,-0.0542,-0.0503,-0.0497,-0.0472,-0.0431,-0.0412,-0.0343,-0.0307,-0.022,-0.017,-0.0128,-0.0066,-0.0007,0.0051,0.0031,0.0036,0.0075,0.0186,0.0227,0.0243,0.0083,0.0085,0.0086,0.0213,0,-0.0578,-0.0621,-0.0597,-0.0626,-0.0643,-0.0581,-0.0564,-0.0514,-0.0454,-0.0401,-0.0301,-0.0245,-0.0192,-0.0159,-0.0092,0.0018,0.0076,0.0013,0.0192,0.0198,0.0228,0.0256,0.021,0.0322,0.0224,0.0226,0.0227,0,-0.0632,-0.0654,-0.0701,-0.0704,-0.0704,-0.0706,-0.0663,-0.0638,-0.054,-0.0491,-0.0405,-0.0322,-0.0217,-0.0177,0.0007,-0.0037,0.0062,0.0146,0.0154,0.0223,0.0258,0.0315,0.0346,0.0246,0.0244,0.0243,0.0242,0,-0.0697,-0.0724,-0.0768,-0.077,-0.076,-0.0762,-0.0745,-0.0669,-0.0647,-0.0541,-0.0505,-0.0367,-0.0291,-0.015,0.0031,0.0019,0.0233,0.0244,0.0374,0.0377,0.0391,0.0394,0.0366,0.0366,0.0366,0.0366,0.0365,0,-0.0763,-0.0796,-0.0807,-0.0833,-0.0876,-0.0834,-0.0846,-0.0802,-0.0731,-0.0702,-0.0559,-0.0494,-0.0281,-0.0127,0.0022,0.0239,0.0233,0.0377,0.042,0.0365,0.0364,0.0339,0.0334,0.037,0.0369,0.0368,0.0368,0,-0.0831,-0.0837,-0.0893,-0.0907,-0.0915,-0.0943,-0.0933,-0.0931,-0.0849,-0.0802,-0.0772,-0.0581,-0.0369,-0.0149,0.0101,0.0233,0.043,0.0503,0.0421,0.0453,0.0527,0.0517,0.0658,0.0661,0.0663,0.0665,0.0666,0,-0.0871,-0.0908,-0.0961,-0.1,-0.1014,-0.1043,-0.1059,-0.1003,-0.0989,-0.0851,-0.0831,-0.0615,-0.0444,-0.0053,0.0218,0.0504,0.05,0.0618,0.0594,0.0533,0.0561,0.0547,0.0535,0.0582,0.0583,0.0583,0.0584,0,-0.0944,-0.0962,-0.1007,-0.1096,-0.1138,-0.1176,-0.1187,-0.1196,-0.1109,-0.1039,-0.09,-0.075,-0.0357,-0.0034,0.0343,0.05,0.057,0.064,0.0621,0.0512,0.0472,0.0495,0.0483,0.0589,0.0589,0.0588,0.0588,0.0588,-0.0988,-0.1042,-0.1106,-0.1185,-0.124,-0.1288,-0.1312,-0.1288,-0.1253,-0.1123,-0.0971,-0.0716,-0.0389,0.0148,0.0416,0.0664,0.0661,0.0713,0.0706,0.0701,0.0667,0.0632,0.0773,0.0773,0.0773,0.0774,0.0774,0,-0.104,-0.1102,-0.1189,-0.1277,-0.1348,-0.1353,-0.1379,-0.136,-0.1308,-0.1148,-0.0977,-0.0612,-0.0233,0.0107,0.0505,0.0744,0.0716,0.0775,0.0685,0.0678,0.0673,0.0633,0.0733,0.0734,0.0734,0.0735,0,0,-0.1068,-0.1162,-0.1211,-0.1343,-0.1404,-0.1458,-0.1469,-0.1409,-0.1294,-0.1123,-0.093,-0.0657,-0.0234,0.0034,0.034,0.0547,0.0546,0.0564,0.0572,0.0423,0.0414,0.0615,0.0545,0,0,0,0,0]}],[{"header":{"parameterUnit":"m.s-1","parameterCategory":2,"la1":30.2991,"la2":30.254,"lo1":-89.0895,"lo2":-89.0444,"dy":0.0017,"dx":0.0017,"nx":28,"ny":28,"refTime":"2025-12-16T03:00:00:Z","depth":"4","parameterNumber":2,"parameterNumberName":"U-component_of_CURRENTS"},"data":[0,0,0,0,0,0,0,0,0,0,0,0,0,0,0,0,0,0,0,0,0,0,0,0,0,0,0,0,0,0,0,0,0,0,0,0,0,0,0,0,0,0,0,0,0,0,0,0,0,0,0,0,0,0,0,0,0,0,-0.182,-0.1821,0,-0.1891,-0.1892,-0.1893,-0.1931,-0.1931,-0.1931,-0.1932,-0.1986,-0.1987,-0.1988,0,0,0,0,0,0,0,0,0,0,0,0,0,-0.1716,-0.1718,-0.182,-0.1821,-0.1822,-0.1891,-0.1892,-0.1893,-0.1931,-0.1931,-0.1931,-0.1932,-0.1985,-0.1987,-0.1988,0,0,0,0,0,0,0,0,0,0,0,0,0,-0.177,-0.1718,-0.182,-0.1851,-0.1855,-0.1891,-0.1892,-0.1893,-0.1931,-0.1931,-0.1931,-0.1932,-0.1985,-0.1986,-0.1988,-0.1991,0,0,-0.1994,-0.1994,0,0,0,0,0,0,0,0,-0.1767,-0.1773,-0.1845,-0.1849,-0.1853,-0.1904,-0.1876,-0.1926,-0.1931,-0.1899,-0.1932,-0.1932,-0.1958,-0.1962,-0.1972,-0.1994,-0.1996,-0.1994,-0.1995,-0.1996,-0.1996,0,0,0,0,0,0,0,-0.1763,-0.1771,-0.1846,-0.1846,-0.1851,-0.1861,-0.1869,-0.1885,-0.1924,-0.1902,-0.1906,-0.1917,-0.196,-0.197,-0.1973,-0.1997,-0.1994,-0.1995,-0.1996,-0.1997,-0.2106,-0.2107,0,0,0,0,0,0,-0.1758,-0.1767,-0.1844,-0.1848,-0.1812,-0.1863,-0.1872,-0.1886,-0.1924,-0.1931,-0.1916,-0.1918,-0.1967,-0.1971,-0.1975,-0.2057,-0.1996,-0.1997,-0.1998,-0.2104,-0.2106,-0.2108,0,0,0,0,0,0,-0.1756,-0.1764,-0.1841,-0.1811,-0.1821,-0.1865,-0.188,-0.1887,-0.1928,-0.1935,-0.1942,-0.1953,-0.1967,-0.1973,-0.2021,-0.2056,-0.1998,-0.2,-0.2102,-0.2104,-0.2107,-0.2172,0,0,0,0,0,0,-0.1753,-0.1763,-0.1786,-0.1811,-0.1823,-0.1885,-0.188,-0.1888,-0.1933,-0.1937,-0.1969,-0.1972,-0.1968,-0.2019,-0.2023,-0.2058,-0.2001,-0.2099,-0.2103,-0.2106,-0.2167,-0.2176,-0.2184,0,0,0,0,0,-0.1749,-0.1774,-0.1787,-0.1797,-0.1848,-0.1886,-0.1894,-0.1924,-0.1935,-0.196,-0.1985,-0.1973,-0.2043,-0.2022,-0.2026,-0.2062,-0.2098,-0.2102,-0.2106,-0.2163,-0.2174,-0.2184,0,0,0,0,0,0,-0.1743,-0.1781,-0.1796,-0.1833,-0.1868,-0.1894,-0.1925,-0.1943,-0.1983,-0.1995,-0.1997,-0.2003,-0.2057,-0.2054,-0.203,-0.2104,-0.2068,-0.2073,-0.211,-0.2121,-0.2129,-0.2123,-0.2003,0,0,0,0,0,-0.1752,-0.1782,-0.1817,-0.1851,-0.1871,-0.1904,-0.1929,-0.1951,-0.1982,-0.2002,-0.2025,-0.2049,-0.2073,-0.2093,-0.2111,-0.2154,-0.2134,-0.218,-0.2189,-0.2196,-0.2195,-0.2197,-0.2205,-0.2121,-0.2121,-0.2121,0,0,-0.176,-0.1785,-0.1804,-0.1852,-0.1882,-0.192,-0.1921,-0.197,-0.2009,-0.2,-0.2068,-0.2082,-0.2091,-0.2139,-0.2163,-0.2144,-0.2211,-0.2201,-0.2207,-0.2202,-0.2202,-0.221,-0.2217,-0.2124,-0.2124,-0.2123,0,0,-0.178,-0.1815,-0.1845,-0.1879,-0.1932,-0.1954,-0.1975,-0.2023,-0.2055,-0.2115,-0.2118,-0.2155,-0.2199,-0.221,-0.2218,-0.2285,-0.2255,-0.2298,-0.2337,-0.234,-0.2346,-0.2351,-0.2339,-0.2343,-0.2302,-0.2303,-0.2303,0,-0.1791,-0.183,-0.1861,-0.19,-0.1934,-0.1973,-0.2014,-0.2053,-0.2113,-0.2141,-0.2148,-0.2217,-0.2229,-0.2272,-0.2299,-0.2303,-0.2293,-0.2297,-0.2349,-0.2354,-0.2358,-0.2344,-0.2347,-0.2306,-0.2306,-0.2305,-0.2305,0,-0.1823,-0.187,-0.1893,-0.1953,-0.1995,-0.204,-0.2091,-0.2143,-0.2185,-0.2215,-0.2282,-0.2301,-0.2335,-0.2352,-0.2348,-0.2392,-0.2371,-0.2357,-0.2319,-0.237,-0.2353,-0.2355,-0.2311,-0.231,-0.2309,-0.2308,0,0,-0.18,-0.1897,-0.1908,-0.1946,-0.2028,-0.206,-0.2136,-0.2201,-0.2246,-0.2308,-0.2356,-0.2408,-0.2417,-0.2427,-0.243,-0.244,-0.2467,-0.2419,-0.2417,-0.2398,-0.2466,-0.2308,-0.2295,-0.2462,-0.2463,-0.2464,-0.2441,0,-0.1817,-0.189,-0.194,-0.2018,-0.2058,-0.2125,-0.2187,-0.2254,-0.2309,-0.2367,-0.2399,-0.2446,-0.2446,-0.2467,-0.248,-0.247,-0.2476,-0.2474,-0.2426,-0.2424,-0.227,-0.2293,-0.2466,-0.2443,-0.2443,-0.2443,-0.2444,0,-0.1822,-0.1872,-0.195,-0.2047,-0.2073,-0.2131,-0.2229,-0.229,-0.2374,-0.2417,-0.2469,-0.2491,-0.253,-0.2515,-0.2524,-0.2524,-0.2503,-0.2489,-0.2487,-0.2315,-0.227,-0.2381,-0.2447,-0.2446,-0.2446,-0.2446,-0.2446,0,-0.1767,-0.1875,-0.1937,-0.1973,-0.2089,-0.2144,-0.2211,-0.2307,-0.2355,-0.2447,-0.2483,-0.2532,-0.2554,-0.255,-0.2531,-0.2534,-0.2517,-0.2511,-0.2349,-0.2337,-0.2458,-0.2452,-0.2507,-0.2507,-0.2508,-0.2508,-0.2508,0,-0.1741,-0.1793,-0.1923,-0.1954,-0.2029,-0.2125,-0.2207,-0.2279,-0.2374,-0.2411,-0.2501,-0.2514,-0.2565,-0.2561,-0.254,-0.2438,-0.2523,-0.2347,-0.2318,-0.2487,-0.2485,-0.2459,-0.2453,-0.2507,-0.2507,-0.2507,-0.2507,0,-0.1661,-0.1751,-0.1825,-0.1959,-0.2004,-0.2057,-0.2193,-0.2234,-0.2349,-0.2397,-0.2426,-0.2508,-0.2497,-0.2519,-0.2501,-0.2422,-0.2359,-0.2303,-0.2478,-0.246,-0.2179,-0.2178,-0.2115,-0.211,-0.2105,-0.2101,-0.2097,0,-0.1622,-0.1654,-0.1803,-0.1842,-0.1908,-0.2006,-0.2059,-0.2198,-0.2231,-0.2359,-0.235,-0.2402,-0.2432,-0.2275,-0.2324,-0.2262,-0.2237,-0.2192,-0.2189,-0.216,-0.2138,-0.2145,-0.215,-0.2089,-0.2088,-0.2087,-0.2085,0,-0.1533,-0.1603,-0.166,-0.1741,-0.1812,-0.1878,-0.1965,-0.1975,-0.211,-0.2238,-0.2204,-0.2192,-0.2175,-0.2153,-0.2119,-0.2078,-0.2215,-0.214,-0.215,-0.2147,-0.2127,-0.2112,-0.2123,-0.2068,-0.2071,-0.2072,-0.2073,0,-0.1462,-0.1477,-0.1556,-0.1608,-0.1689,-0.1705,-0.1783,-0.1812,-0.1865,-0.201,-0.1987,-0.2051,-0.2138,-0.2055,-0.2023,-0.1971,-0.1945,-0.1878,-0.1901,-0.1921,-0.1867,-0.1814,-0.1622,0,0,0,0,0,-0.1377,-0.1371,-0.1411,-0.1458,-0.153,-0.1573,-0.1687,-0.1767,-0.1901,-0.1818,-0.1898,-0.1873,-0.1834,-0.187,-0.1773,-0.1939,-0.1955,-0.182,-0.1893,-0.1973,-0.1993,-0.1949,0,0,0,0,0,0,-0.1317,-0.1348,-0.1356,-0.1309,-0.1309,-0.1368,-0.1433,-0.1536,-0.1503,-0.1648,-0.163,-0.1745,-0.1731,-0.1846,-0.1726,-0.1737,-0.1741,-0.1873,-0.1868,-0.1962,-0.198,-0.1996,-0.1957,0,0,0,0,0]},{"header":{"parameterUnit":"m.s-1","parameterCategory":2,"la1":30.2991,"la2":30.254,"lo1":-89.0895,"lo2":-89.0444,"dy":0.0017,"dx":0.0017,"nx":28,"ny":28,"refTime":"2025-12-16T03:00:00:Z","depth":"4","parameterNumber":3,"parameterNumberName":"V-component_of_CURRENTS"},"data":[0,0,0,0,0,0,0,0,0,0,0,0,0,0,0,0,0,0,0,0,0,0,0,0,0,0,0,0,0,0,0,0,0,0,0,0,0,0,0,0,0,0,0,0,0,0,0,0,0,0,0,0,0,0,0,0,0,0,-0.0207,-0.0206,0,-0.0148,-0.0148,-0.0147,-0.0103,-0.0103,-0.0103,-0.0103,-0.0007,-0.0005,-0.0002,0,0,0,0,0,0,0,0,0,0,0,0,0,-0.0236,-0.0235,-0.0207,-0.0206,-0.0205,-0.0148,-0.0147,-0.0147,-0.0103,-0.0103,-0.0103,-0.0103,-0.0008,-0.0005,-0.0002,0,0,0,0,0,0,0,0,0,0,0,0,0,-0.0203,-0.0235,-0.0207,-0.0178,-0.0175,-0.0149,-0.0147,-0.0146,-0.0103,-0.0103,-0.0103,-0.0102,-0.0009,-0.0005,-0.0002,0.0013,0,0,0.0009,0.001,0,0,0,0,0,0,0,0,-0.0205,-0.0202,-0.0183,-0.018,-0.0177,-0.0134,-0.0123,-0.0092,-0.0103,-0.0129,-0.0103,-0.0102,-0.0047,-0.0041,-0.0029,0.0017,0.0021,0.0009,0.0011,0.0013,0.0014,0,0,0,0,0,0,0,-0.0208,-0.0204,-0.0182,-0.0182,-0.0179,-0.0153,-0.0148,-0.0116,-0.0089,-0.0127,-0.0124,-0.012,-0.0045,-0.0032,-0.0026,0.0023,0.0009,0.0012,0.0014,0.0016,0.0097,0.0097,0,0,0,0,0,0,-0.0221,-0.0207,-0.0184,-0.018,-0.0192,-0.0153,-0.0148,-0.0147,-0.009,-0.0082,-0.012,-0.0118,-0.0038,-0.003,-0.0022,-0.0001,0.0013,0.0016,0.0018,0.0097,0.0097,0.0097,0,0,0,0,0,0,-0.0222,-0.022,-0.0186,-0.0193,-0.0187,-0.0154,-0.0153,-0.0146,-0.0135,-0.0086,-0.0076,-0.0117,-0.0038,-0.0027,0.0004,0.0003,0.0018,0.0021,0.0096,0.0097,0.0097,0.0042,0,0,0,0,0,0,-0.0223,-0.022,-0.0227,-0.0194,-0.0187,-0.0178,-0.0153,-0.0145,-0.0134,-0.013,-0.0079,-0.007,-0.0037,-0.0001,0.0008,0.0008,0.0024,0.0096,0.0097,0.0097,0.0044,0.004,0.0037,0,0,0,0,0,-0.0224,-0.0236,-0.0227,-0.0225,-0.0197,-0.0179,-0.0173,-0.0146,-0.0134,-0.0134,-0.0097,-0.0072,0.0006,0.0001,0.0012,0.0014,0.0096,0.0096,0.0097,0.0045,0.0041,0.0037,0,0,0,0,0,0,-0.0252,-0.0232,-0.0222,-0.0227,-0.0208,-0.0172,-0.0171,-0.0152,-0.0123,-0.0119,-0.0071,-0.0059,-0.0033,-0.0002,-0.0008,0.0038,0.0055,0.0057,0.0013,0.0009,0.0006,-0.0008,0.0026,0,0,0,0,0,-0.0262,-0.0266,-0.024,-0.0245,-0.0238,-0.0206,-0.0196,-0.0178,-0.0148,-0.0135,-0.0099,-0.0059,-0.0024,-0.0003,0.003,0.0056,0.0091,0.0064,0.0061,0.0058,0.0055,0.011,0.0111,0.0097,0.0097,0.0097,0,0,-0.0275,-0.0264,-0.0267,-0.0251,-0.0234,-0.0231,-0.0199,-0.019,-0.0183,-0.0129,-0.011,-0.0072,-0.0021,0.0006,0.0021,0.0033,0.0079,0.0058,0.0055,0.0053,0.011,0.0112,0.0113,0.0097,0.0097,0.0097,0,0,-0.0303,-0.0293,-0.0306,-0.0294,-0.0276,-0.0255,-0.0256,-0.0224,-0.0205,-0.0183,-0.0141,-0.0103,-0.0055,-0.0014,0.0013,0.0012,0.0056,0.0021,-0.0001,0.0053,0.0054,0.0056,0.0095,0.0101,0.0024,0.0024,0.0024,0,-0.032,-0.0332,-0.0306,-0.0314,-0.0311,-0.027,-0.0281,-0.0255,-0.0216,-0.02,-0.0186,-0.0104,-0.0063,-0.0016,-0.0017,0.0005,0.0036,0.0008,0.0048,0.005,0.0053,0.0093,0.01,0.0021,0.0022,0.0022,0.0022,0,-0.0353,-0.0364,-0.0371,-0.0368,-0.0359,-0.0362,-0.0327,-0.0312,-0.0286,-0.0254,-0.0209,-0.0147,-0.0097,-0.0076,-0.0046,-0.0005,0.001,0.0032,0.0055,0.0051,0.0094,0.0102,0.0017,0.0018,0.0019,0.002,0,0,-0.0386,-0.0396,-0.0399,-0.0413,-0.039,-0.0389,-0.0375,-0.0349,-0.034,-0.0288,-0.0265,-0.0196,-0.0157,-0.0124,-0.0074,-0.0024,0.0022,0.0006,0.001,0.0039,0.013,0.0119,0.0127,0.005,0.0052,0.0053,0.0149,0,-0.0422,-0.0459,-0.0446,-0.0477,-0.0492,-0.0455,-0.0447,-0.0415,-0.0375,-0.034,-0.0261,-0.0221,-0.0175,-0.0151,-0.0093,-0.0005,0.0042,-0.0007,0.0135,0.0139,0.0125,0.0136,0.0057,0.0156,0.0158,0.0159,0.016,0,-0.0457,-0.0479,-0.0522,-0.0539,-0.0542,-0.0551,-0.0533,-0.052,-0.0452,-0.0417,-0.0352,-0.0287,-0.0201,-0.0167,-0.0016,-0.005,0.003,0.0098,0.0104,0.0118,0.0143,0.0164,0.0176,0.0175,0.0174,0.0172,0.0172,0,-0.0498,-0.0531,-0.0573,-0.0579,-0.0586,-0.0598,-0.0595,-0.0547,-0.0538,-0.0464,-0.0441,-0.0327,-0.0272,-0.015,-0.0005,-0.0009,0.0158,0.0175,0.024,0.024,0.0245,0.0242,0.0274,0.0274,0.0273,0.0273,0.0273,0,-0.0538,-0.0572,-0.0603,-0.0627,-0.0677,-0.0655,-0.0681,-0.0655,-0.0613,-0.0598,-0.0488,-0.0443,-0.0266,-0.0145,-0.0016,0.0139,0.0156,0.0237,0.0267,0.0219,0.0212,0.0251,0.0247,0.0277,0.0276,0.0275,0.0275,0,-0.0574,-0.0593,-0.065,-0.0685,-0.0703,-0.0736,-0.0757,-0.0764,-0.0713,-0.0687,-0.0666,-0.0526,-0.0363,-0.0183,0.0022,0.0115,0.0269,0.0317,0.0245,0.0269,0.0316,0.0308,0.0397,0.0397,0.0398,0.0398,0.0398,0,-0.0594,-0.0629,-0.0704,-0.0749,-0.0774,-0.0819,-0.0847,-0.0822,-0.0819,-0.0733,-0.0719,-0.0566,-0.0452,-0.0166,0.0015,0.0263,0.0292,0.0361,0.0344,0.0309,0.033,0.0322,0.0314,0.0399,0.0399,0.0399,0.0399,0,-0.0632,-0.0666,-0.0713,-0.081,-0.0866,-0.0916,-0.0948,-0.0953,-0.0904,-0.0866,-0.0745,-0.0582,-0.04,-0.0173,0.002,0.0195,0.0313,0.0366,0.0366,0.035,0.0313,0.0331,0.0323,0.0401,0.0401,0.04,0.04,0,-0.0658,-0.0704,-0.0777,-0.0855,-0.0934,-0.0983,-0.0996,-0.0973,-0.0957,-0.0849,-0.0814,-0.0596,-0.0469,-0.0208,-0.0029,0.0144,0.0182,0.0223,0.0231,0.0232,0.0154,0.0081,0.0124,0,0,0,0,0,-0.0673,-0.0729,-0.0814,-0.0899,-0.0977,-0.1016,-0.1047,-0.104,-0.0995,-0.0917,-0.0859,-0.0678,-0.0391,-0.0265,-0.0092,-0.0038,0.0196,0.0166,0.0242,0.0408,0.0407,0.0343,0,0,0,0,0,0,-0.0686,-0.0768,-0.0814,-0.0914,-0.0975,-0.1048,-0.1067,-0.1039,-0.0982,-0.0913,-0.0757,-0.0656,-0.0376,-0.0485,-0.0094,-0.0041,0.0025,0.0308,0.0311,0.0409,0.0408,0.0406,0.034,0,0,0,0,0]}]]